Location: Stuttgart
(48.8069°N, 9.1544°E)
Time: 03:26:18
(UTC+02:00)

ISS - Pass Details

Date: 13 May 2021
Orbit: 417 x 422 km, 51.6° (Epoch: 15 June)

Event Time Altitude Azimuth Distance (km) Brightness Sun altitude
Exits shadow 02:04:03 44° 317° (NW) 599 -2.8 -22.1°
Maximum altitude 02:04:40 51° 355° (N) 539 -2.9 -22.1°
Drops below altitude 10° 02:07:59 10° 73° (ENE) 1,510 -0.6 -21.9°
Sets 02:10:08 0° 79° (E) 2,376 0.4 -21.9°
